Hourly Weather Rudzisko

Today, 21 April, Wednesday

Time Temperature Precipitation Wind Pressure Humidity
00:00 +8°C° 0.1 mm 2 mps 744 mmHg 82%
01:00 +7°C° 0.1 mm 2 mps 744 mmHg 85%
02:00 +7°C° 0 mm 2 mps 744 mmHg 86%
03:00 +5°C° 0 mm 3 mps 744 mmHg 88%
04:00 +5°C° 0 mm 3 mps 743 mmHg 90%
05:00 +7°C° 0.1 mm 3 mps 744 mmHg 88%
06:00 +8°C° 0.1 mm 3 mps 744 mmHg 85%
07:00 +8°C° 0.1 mm 4 mps 744 mmHg 83%
08:00 +10°C° 0.3 mm 4 mps 744 mmHg 75%
09:00 +12°C° 0.3 mm 5 mps 744 mmHg 67%
10:00 +14°C° 0.3 mm 5 mps 743 mmHg 58%
11:00 +14°C° 0 mm 5 mps 743 mmHg 53%
12:00 +15°C° 0 mm 6 mps 743 mmHg 49%
13:00 +15°C° 0 mm 6 mps 743 mmHg 44%
14:00 +15°C° 0 mm 6 mps 743 mmHg 45%
15:00 +15°C° 0 mm 5 mps 743 mmHg 47%
16:00 +14°C° 0 mm 5 mps 743 mmHg 48%
17:00 +13°C° 0 mm 4 mps 743 mmHg 53%
18:00 +12°C° 0 mm 3 mps 743 mmHg 57%
19:00 +12°C° 0 mm 2 mps 743 mmHg 62%
20:00 +10°C° 0 mm 2 mps 743 mmHg 64%
21:00 +9°C° 0 mm 3 mps 743 mmHg 66%
22:00 +9°C° 0 mm 3 mps 743 mmHg 68%
23:00 +8°C° 0 mm 3 mps 743 mmHg 71%

Tomorrow, 22 April, Thursday

Time Temperature Precipitation Wind Pressure Humidity
00:00 +8°C° 0 mm 3 mps 743 mmHg 73%
01:00 +6°C° 0 mm 4 mps 743 mmHg 76%
02:00 +6°C° 0 mm 4 mps 744 mmHg 81%
03:00 +5°C° 0 mm 4 mps 744 mmHg 86%
04:00 +4°C° 0 mm 4 mps 744 mmHg 92%
05:00 +4°C° 0.1 mm 4 mps 745 mmHg 85%
06:00 +3°C° 0.1 mm 5 mps 745 mmHg 79%
07:00 +3°C° 0.1 mm 5 mps 746 mmHg 73%
08:00 +3°C° 0 mm 6 mps 746 mmHg 66%
09:00 +4°C° 0 mm 7 mps 746 mmHg 58%
10:00 +5°C° 0 mm 7 mps 746 mmHg 51%
11:00 +5°C° 0 mm 7 mps 746 mmHg 48%
12:00 +6°C° 0 mm 8 mps 746 mmHg 45%
13:00 +7°C° 0 mm 8 mps 746 mmHg 42%
14:00 +7°C° 0 mm 8 mps 746 mmHg 43%
15:00 +6°C° 0 mm 7 mps 746 mmHg 44%
16:00 +6°C° 0 mm 7 mps 746 mmHg 44%
17:00 +5°C° 0 mm 6 mps 746 mmHg 50%
18:00 +5°C° 0 mm 5 mps 747 mmHg 55%
19:00 +4°C° 0 mm 4 mps 747 mmHg 61%
20:00 +4°C° 0 mm 4 mps 747 mmHg 65%
21:00 +3°C° 0 mm 4 mps 747 mmHg 68%
22:00 +3°C° 0 mm 4 mps 747 mmHg 72%
23:00 +1°C° 0 mm 4 mps 747 mmHg 76%

Day after tomorrow, 23 April, Friday

Time Temperature Precipitation Wind Pressure Humidity
00:00 +1°C° 0 mm 4 mps 747 mmHg 81%
01:00 0°C° 0 mm 4 mps 748 mmHg 85%
02:00 0°C° 0 mm 4 mps 748 mmHg 85%
03:00 -1°C° 0 mm 4 mps 748 mmHg 84%
04:00 -1°C° 0 mm 4 mps 748 mmHg 84%
05:00 0°C° 0 mm 5 mps 748 mmHg 81%
06:00 +1°C° 0 mm 5 mps 748 mmHg 78%
07:00 +2°C° 0 mm 6 mps 748 mmHg 75%
08:00 +2°C° 0.2 mm 6 mps 749 mmHg 77%
09:00 +3°C° 0.2 mm 7 mps 749 mmHg 78%
10:00 +3°C° 0.2 mm 7 mps 749 mmHg 79%
11:00 +3°C° 0.4 mm 7 mps 749 mmHg 78%
12:00 +3°C° 0.4 mm 7 mps 749 mmHg 76%
13:00 +3°C° 0.4 mm 7 mps 749 mmHg 74%
14:00 +3°C° 0.1 mm 7 mps 750 mmHg 72%
15:00 +4°C° 0.1 mm 7 mps 750 mmHg 70%
16:00 +4°C° 0.1 mm 7 mps 750 mmHg 68%
17:00 +3°C° 0.2 mm 6 mps 750 mmHg 71%
18:00 +2°C° 0.2 mm 5 mps 750 mmHg 74%
19:00 +1°C° 0.2 mm 4 mps 750 mmHg 78%
20:00 0°C° 0 mm 4 mps 751 mmHg 78%
21:00 0°C° 0 mm 4 mps 751 mmHg 79%
22:00 -1°C° 0 mm 4 mps 751 mmHg 79%
23:00 -2°C° 0 mm 4 mps 751 mmHg 79%

24 April, Saturday

Time Temperature Precipitation Wind Pressure Humidity
00:00 -1°C° 0 mm 3 mps 751 mmHg 79%
01:00 -2°C° 0 mm 3 mps 752 mmHg 80%
02:00 -2°C° 0 mm 3 mps 752 mmHg 78%
03:00 -3°C° 0 mm 4 mps 752 mmHg 77%
04:00 -3°C° 0 mm 4 mps 752 mmHg 75%
05:00 -2°C° 0 mm 4 mps 752 mmHg 70%
06:00 0°C° 0 mm 5 mps 752 mmHg 65%
07:00 +1°C° 0 mm 5 mps 752 mmHg 60%
08:00 +2°C° 0 mm 5 mps 752 mmHg 58%
09:00 +4°C° 0 mm 6 mps 752 mmHg 56%
10:00 +5°C° 0 mm 6 mps 751 mmHg 53%
11:00 +5°C° 0.3 mm 6 mps 751 mmHg 59%
12:00 +5°C° 0.3 mm 6 mps 751 mmHg 64%
13:00 +5°C° 0.3 mm 6 mps 750 mmHg 69%
14:00 +5°C° 0.4 mm 6 mps 750 mmHg 71%
15:00 +5°C° 0.4 mm 6 mps 750 mmHg 73%
16:00 +4°C° 0.4 mm 6 mps 750 mmHg 76%
17:00 +3°C° 0.3 mm 6 mps 750 mmHg 81%
18:00 +2°C° 0.3 mm 5 mps 750 mmHg 85%
19:00 +2°C° 0.3 mm 5 mps 750 mmHg 90%
20:00 +1°C° 0.3 mm 4 mps 751 mmHg 89%
21:00 0°C° 0.3 mm 4 mps 751 mmHg 88%
22:00 0°C° 0.3 mm 3 mps 751 mmHg 87%
23:00 -1°C° 0 mm 3 mps 752 mmHg 86%

25 April, Sunday

Time Temperature Precipitation Wind Pressure Humidity
00:00 -2°C° 0 mm 3 mps 752 mmHg 85%
01:00 -2°C° 0 mm 3 mps 752 mmHg 83%
02:00 -4°C° 0 mm 3 mps 752 mmHg 83%
03:00 -4°C° 0 mm 3 mps 752 mmHg 82%
04:00 -4°C° 0 mm 3 mps 752 mmHg 81%
05:00 -3°C° 0 mm 4 mps 752 mmHg 77%
06:00 -1°C° 0 mm 4 mps 752 mmHg 72%
07:00 0°C° 0 mm 5 mps 752 mmHg 68%
08:00 +2°C° 0.1 mm 6 mps 752 mmHg 62%
09:00 +3°C° 0.1 mm 6 mps 752 mmHg 57%
10:00 +5°C° 0.1 mm 6 mps 752 mmHg 51%
11:00 +5°C° 0.2 mm 7 mps 751 mmHg 50%
12:00 +5°C° 0.2 mm 7 mps 751 mmHg 49%
13:00 +6°C° 0.2 mm 7 mps 751 mmHg 48%
14:00 +5°C° 0.2 mm 7 mps 750 mmHg 50%
15:00 +5°C° 0.2 mm 7 mps 750 mmHg 52%
16:00 +5°C° 0.2 mm 7 mps 750 mmHg 54%
17:00 +4°C° 0.1 mm 6 mps 750 mmHg 57%
18:00 +2°C° 0.1 mm 5 mps 750 mmHg 61%
19:00 +1°C° 0.1 mm 4 mps 750 mmHg 65%
20:00 +1°C° 0 mm 3 mps 751 mmHg 69%
21:00 0°C° 0 mm 3 mps 751 mmHg 73%
22:00 -1°C° 0 mm 2 mps 751 mmHg 77%
23:00 -1°C° 0 mm 2 mps 751 mmHg 76%

26 April, Monday

Time Temperature Precipitation Wind Pressure Humidity
00:00 -1°C° 0 mm 2 mps 751 mmHg 75%
01:00 -1°C° 0 mm 3 mps 751 mmHg 74%
02:00 -2°C° 0 mm 3 mps 751 mmHg 74%
03:00 -2°C° 0 mm 3 mps 751 mmHg 73%
04:00 -2°C° 0 mm 3 mps 751 mmHg 72%
05:00 -2°C° 0 mm 4 mps 751 mmHg 66%
06:00 0°C° 0 mm 5 mps 751 mmHg 60%
07:00 +1°C° 0 mm 5 mps 751 mmHg 55%
08:00 +3°C° 0 mm 5 mps 751 mmHg 52%
09:00 +5°C° 0 mm 5 mps 751 mmHg 49%
10:00 +7°C° 0 mm 6 mps 751 mmHg 46%
11:00 +7°C° 0 mm 5 mps 751 mmHg 46%
12:00 +8°C° 0 mm 5 mps 750 mmHg 47%
13:00 +8°C° 0 mm 5 mps 750 mmHg 47%
14:00 +8°C° 0 mm 4 mps 750 mmHg 49%
15:00 +8°C° 0 mm 4 mps 750 mmHg 51%
16:00 +9°C° 0 mm 3 mps 750 mmHg 53%
17:00 +8°C° 0 mm 2 mps 749 mmHg 57%
18:00 +8°C° 0 mm 1 mps 749 mmHg 61%
19:00 +5°C° 0 mm 0 mps 749 mmHg 65%
20:00 +6°C° 0 mm 1 mps 749 mmHg 67%
21:00 +4°C° 0 mm 2 mps 748 mmHg 69%
22:00 +4°C° 0 mm 2 mps 748 mmHg 70%
23:00 +2°C° 0 mm 3 mps 748 mmHg 72%
Show more